Location: Waco, TX
(31.5480°N, 97.1670°W)
Time: 22:25:20
(UTC-05:00)

ISS - Pass Details

Date: 22 May 2017
Orbit: 401 x 408 km, 51.6° (Epoch: 24 June)

Event Time Altitude Azimuth Distance (km) Brightness Sun altitude
Rises 21:01:13 0° 184° (S) 2,320 -0.2 -8.0°
Reaches altitude 10° 21:04:11 10° 154° (SSE) 1,464 -1.5 -8.6°
Maximum altitude 21:05:44 13° 126° (SE) 1,309 -1.9 -8.9°
Enters shadow 21:06:09 13° 118° (ESE) 1,321 -1.9 -8.9°
Drops below altitude 10° 21:07:17 10° 98° (E) 1,468 - -9.1°
Sets 21:10:16 0° 68° (ENE) 2,332 - -9.7°
